www.pogodaiklimat.ru

Погода и климат >> Архив погоды >> Корея >> Чхонджу


ПОГОДА в Чхонджу

  • Прогноз погоды в Чхонджу
  • Монитор погоды в Чхонджу

АРХИВ ПОГОДЫ в Чхонджу

Время (UTC), дата Ветер
(напр.,м/с)
 
Видим.   Явления Облачность Т
(С)
Тd
(С)
f
(%)
Тe
(С)
Тes
(С)
Комфортность P
(гПа)
Po
(гПа)
Тmin
(С)
Tmax
(С)
R
(мм)
R24
(мм)
S
(см)
09 10.09 Ю 2 22 км 8/5 1500 м
[Sc Ac trans]
+30.4 +21.2 58 +38 +38 очень
душно
1010.2 1003.8
12 10.09 Ю 3 15 км 8/3 1000 м
[Sc Ac trans]
+28.5 +21.5 66 +36 +36 очень
душно
1011.8 1005.4 +32.1 0.0
15 10.09 Ю 3 8000 м мгла 9// 1000 м
[Sc]
+27.2 +21.0 69 +34 +34 очень
душно
1011.8 1005.3
18 10.09 10 км в посл. час дождь н/о +26.2 +21.1 74 +33 +33 очень
душно
1012.1 1005.6
21 10.09 Ю 1 4900 м в посл. час дождь 10// 200 м
[St]
+24.2 +22.4 90 +32 +32 очень
душно
1013.0 1006.5
00 11.09 Ю 3 4500 м слаб. дождь 10/6 300 м
[Sc As op]
+24.6 +22.4 88 +32 +33 очень
душно
1014.4 1007.9 +24.0 0.0
03 11.09 СВ 2 7000 м в посл. час дождь 10/10 300 м
[Sc As op]
+23.0 +21.8 93 +31 +31 очень
душно
1014.8 1008.2
06 11.09 С 3 10 км дымка 9/9 300 м
[Sc]
+24.7 +21.6 83 +32 +32 очень
душно
1013.8 1007.3
09 11.09 СВ 2 17 км 5/3 600 м
[Sc Ac trans]
+24.8 +21.5 82 +32 +32 очень
душно
1014.1 1007.6
12 11.09 В 3 30 км 5/3 600 м
[Sc Ac trans]
+25.0 +20.0 74 +31 +31 очень
душно
1015.7 1009.1 +27.2 0.0
15 11.09 В 5 30 км н/о +24.2 +17.6 67 +28 +28 душно 1016.1 1009.6
18 11.09 СВ 2 29 км 8/6 1500 м
[Sc Ci fib]
+23.6 +17.3 68 +27 +27 жарко 1016.2 1009.6
21 11.09 Ю 1 18 км 10/8 1500 м
[Sc As op]
+23.2 +16.7 67 +28 +28 душно 1016.9 1010.3
00 12.09 В 3 28 км слаб. дождь 10/8 1000 м
[Frnb As op]
+22.0 +16.9 73 +26 +26 душно 1017.9 1011.3 +21.7 0.0
03 12.09 В 2 22 км слаб. дождь 10/9 1000 м
[Frnb As op]
+21.8 +14.4 63 +25 +25 комфорт 1017.8 1011.2
06 12.09 В 3 55 км в посл. час дождь 10/8 1000 м
[Sc As op]
+22.1 +15.4 66 +26 +26 душно 1016.1 1009.5
09 12.09 ЮВ 3 50 км 9/8 1000 м
[Sc As op]
+21.7 +13.8 61 +25 +25 комфорт 1016.1 1009.5
12 12.09 штиль 0 50 км 6/6 1000 м
[Sc]
+21.2 +14.1 64 +24 +24 комфорт 1016.7 1010.1 +24.2 0.0
15 12.09 штиль 0 35 км 8/0
[Ac trans]
+20.1 +15.9 77 +22 +22 комфорт 1016.0 1009.3
18 12.09 штиль 0 35 км 6/3 1500 м
[Sc Ac trans]
+19.1 +15.7 81 +20 +20 1015.3 1008.6
21 12.09 штиль 0 30 км 6/4 1000 м
[Sc Ac trans]
+18.2 +15.0 82 +18 +18 1015.6 1008.9
00 13.09 СВ 3 45 км ясно +21.8 +15.1 66 +25 +30 комфорт 1015.1 1008.5 +18.2 0.0
03 13.09 ЮВ 2 45 км ясно +26.3 +14.7 49 +29 +44 жарко 1013.6 1007.1
06 13.09 Ю 3 40 км ясно +28.0 +15.2 46 +31 +39 душно 1011.6 1005.2
09 13.09 Ю 2 45 км ясно +26.8 +15.4 50 +30 +30 душно 1012.2 1005.7
12 13.09 ЮВ 2 50 км ясно +23.8 +16.3 63 +27 +27 жарко 1013.0 1006.5
15 13.09 Ю 1 55 км ясно +22.7 +15.7 65 +27 +27 душно 1012.7 1006.1
18 13.09 штиль 0 35 км 3/0
[Ac trans]
+20.2 +16.4 79 +23 +23 комфорт 1012.5 1005.8
21 13.09 штиль 0 40 км 8/0
[As op]
+20.0 +16.2 79 +22 +22 комфорт 1012.6 1005.9
00 14.09 Ю 2 50 км 9/0
[Ac trans]
+21.3 +15.5 70 +25 +27 комфорт 1013.1 1006.5 +19.8
03 14.09 Ю 2 40 км 8/0
[Ac trans]
+24.8 +17.5 64 +29 +36 душно 1011.9 1005.4
06 14.09 З 1 40 км 10/6 1000 м
[Sc As op]
+26.2 +19.0 65 +31 +32 очень
душно
1010.2 1003.7
09 14.09 СЗ 1 19 км 10/9 600 м
[Sc As op]
+25.2 +20.4 75 +31 +31 очень
душно
1010.3 1003.8
12 14.09 С 1 14 км 10/8 600 м
[Sc As op]
+24.2 +20.7 81 +30 +30 очень
душно
1012.0 1005.5 +26.7
15 14.09 штиль 0 7000 м дымка 9// 600 м
[Sc]
+23.2 +20.3 84 +30 +30 очень
душно
1011.5 1005.0
18 14.09 С 1 5000 м дымка 9/9 600 м
[Sc]
+22.6 +20.6 88 +29 +29 очень
душно
1011.0 1004.4
21 14.09 3800 м дымка н/о +22.1 +20.1 88 +28 +28 душно 1011.5 1004.9
00 15.09 С 3 7000 м дымка 4/4 1000 м
[Sc]
+24.3 +20.2 78 +30 +33 очень
душно
1011.7 1005.2 +21.6
03 15.09 28 км н/о +27.9 +19.6 61 +34 +39 очень
душно
1010.0 1003.6
06 15.09 СВ 2 45 км 4/3 600 м
[Cu Sc Ci sp]
+29.4 +18.2 51 +34 +40 очень
душно
1008.1 1001.7
09 15.09 СЗ 1 45 км 5/3 600 м
[Cu Sc Cc]
+29.0 +17.5 50 +33 +33 очень
душно
1008.1 1001.7
12 15.09 С 1 15 км 8/8 1500 м
[Sc]
+25.0 +20.2 75 +31 +31 очень
душно
1010.2 1003.7 +30.7
15 15.09 штиль 0 12 км 9// 600 м
[Sc]
+23.8 +19.5 77 +29 +29 душно 1010.2 1003.7
18 15.09 СВ 1 20 км 5/0
[Ac trans]
+22.5 +19.0 81 +28 +28 душно 1009.3 1002.8
21 15.09 штиль 0 18 км 4/1 1000 м
[Sc Ac trans]
+21.2 +18.3 84 +25 +25 комфорт 1010.1 1003.5
00 16.09 В 3 23 км 8/0
[Ac trans]
+23.3 +17.7 71 +29 +31 душно 1011.1 1004.6 +21.0
03 16.09 СВ 2 35 км 4/4 600 м
[Sc Ac trans]
+27.4 +18.1 57 +32 +41 очень
душно
1010.3 1003.8
06 16.09 С 2 50 км 1/1 1000 м
[Sc]
+29.2 +16.3 46 +33 +41 очень
душно
1008.8 1002.4
09 16.09 С 3 50 км 1/1 1000 м
[Sc]
+28.2 +16.1 48 +31 +32 душно 1009.5 1003.1
12 16.09 СВ 4 20 км 8/0
[Ci fib]
+25.2 +16.3 58 +29 +29 душно 1011.2 1004.7 +30.0
15 16.09 С 1 35 км ясно +22.7 +15.0 62 +27 +27 душно 1012.5 1005.9
18 16.09 СВ 2 29 км ясно +19.3 +13.0 67 +21 +21 комфорт 1013.2 1006.6
21 16.09 СВ 1 26 км ясно +17.7 +11.9 69 +19 +19 1015.0 1008.3
00 17.09 С 1 28 км ясно +21.3 +12.6 58 +24 +30 комфорт 1016.3 1009.7 +17.5
03 17.09 Ю 1 30 км 3/0
[Cc]
+26.3 +12.3 42 +28 +44 жарко 1015.3 1008.8
06 17.09 Ю 3 20 км 1/0
[Ci fib]
+28.7 +11.2 34 +29 +37 жарко 1013.1 1006.7

 

Местоположение метеостанции Чхонджу (Корея): широта 36.63 долгота 127.45 высота над уровнем моря 59 м.

В архиве по умолчанию представлена погода в Чхонджу за последнюю неделю. Архивные данные за месяц целиком и за предыдущие месяцы, начиная с января 2011 года, Вы можете получить, выбрав интересующий диапазон дат из раскрывающегося списка и нажав кнопку "Ввод!".


*Определитесь, кто Вы:
робот инопланетянин человек

Внимание! Время в таблицах - всемирное. Для получения местного времени необходимо прибавить поправку, которая равна 9 ч.

Смотрите также архив погоды в соседних городах и на ближайших метеорологических станциях:

Погода в Тэджоне (Корея) (30 км)
Погода в Чхонане (Корея) (33 км)
Погода на Базе Camp Humphreys (Корея) (52 км)
Погода на Чупунджнеоне (Корея) (67 км)
Погода в Санджу (Корея) (68 км)
Погода в Хонсоне (Корея) (68 км)
Погода в Ичхоне (Корея) (71 км)
Погода в Сувоне (Корея) (83 км)
Погода в Сосане (Корея) (86 км)
Погода в Порёне (Корея) (87 км)

Пояснения к столбцам:

Ветер - указаны скорость ветра в м/с - средняя за 10 мин, порывы в срок и между сроками (в фигурных скобках) и направление, откуда дует ветер: С - северный, СВ - северо-восточный, В - восточный, ЮВ - юго-восточный, Ю - южный, ЮЗ - юго-западный, З - западный, СЗ - северо-западный.
Видимость - горизонтальная дальность видимости в метрах или километрах. При видимости от 1 до 10 км при отсутствии осадков обычно наблюдается дымка, при ухудшении видимости до 1 км и менее - туман. В сухую погоду видимость может ухудшаться дымом, пылью или мглою.
Явления - указаны атмосферные явления, наблюдавшиеся в срок или в последний час перед сроком; фигурными скобками обозначены явления, наблюдавшиеся между сроками (за 1-3 часа до срока); квадратными скобками обозначены град или гололедные отложения с указанием их диаметра в мм.
Облачность - указаны через наклонную черту общая и нижняя облачность в баллах и высота нижней границы облаков в метрах; квадратными скобками обозначены формы облаков: Ci - перистые, Cs - перисто-слоистые, Cc - перисто-кучевые, Ac - высококучевые, As - высокослоистые, Sc - слоисто-кучевые, Ns - слоисто-дождевые, Cu - кучевые, Cb - кучево-дождевые. Подробнее классификацию облаков см. в Атласе облаков (PDF).
T - Температура воздуха - температура, измеренная на высоте 2 м над землей.
Td - Температура точки росы - температура, при понижении до которой содержащийся в воздухе водяной пар достигнет насыщения.
f - Относительная влажность воздуха - влажноcть воздуха, измеренная на высоте 2 м над землей.
Te - Эффективная температура - температура, которую ощущает одетый по сезону человек в тени. Характеристика душности погоды. При расчете учитывается влияние влажности воздуха и скорости ветра на теплоощущения человека.
Tes - Эффективная температура на солнце - температура, которую ощущает человек, с поправкой на солнечный нагрев. Характеристика знойности погоды. Зависит от высоты солнца над горизонтом, облачности и скорости ветра. Ночью, в пасмурную погоду, а также при ветре 12 м/с и более поправка равна нулю.
P - Атмосферное давление - приведенное к уровню моря атмосферное давление.
Po - Атмосферное давление - измеренное на уровне метеостанции атмосферное давление.
Tmin - Минимальная температура - минимум температуры воздуха на высоте 2 м над землей.
Tmax - Максимальная температура - максимум температуры воздуха на высоте 2 м над землей.
R - Количество осадков - Количество выпавших осадков за период времени, мм. При наведении курсора мыши на число - период времени, за который выпало указанное количество осадков.
R24 - Количество осадков - Количество выпавших осадков за 24 часа, мм.
S - Снежный покров - Высота снежного покрова, см. При наведении курсора мыши на число - состояние снежного покрова и степень покрытия местности в баллах.